Location: ????????
(60.4333°N, 46.4710°E)
Time: 19:34:11
(UTC+00:00)

Meteor 1-11 Rocket - Pass Details

Date: 25 November 2020
Orbit: 832 x 915 km, 81.2° (Epoch: 16 January)

Event Time Altitude Azimuth Distance (km) Brightness Sun altitude
Rises 16:18:25 0° 342° (NNW) 3,435 7.2 -30.0°
Reaches altitude 10° 16:20:50 10° 341° (NNW) 2,506 6.5 -30.3°
Enters shadow 16:25:59 68° 298° (WNW) 940 4.0 -30.9°
